| time (UTC) | temp F | wind direction | speed MPH | gust MPH | rain 1hr in | rain 24hr in | rain mn in | humidity % | barometer mb |
| 20260504000007 | 66 | 247 | 2.0 | 7.0 | 0.00 | 0.00 | 0.00 | 33 | 1000.5 |
| 20260503234506 | 66 | 292 | 3.0 | 9.0 | 0.00 | 0.00 | 0.00 | 35 | 1000.6 |
| 20260503233104 | 67 | 281 | 3.0 | 11.0 | 0.00 | 0.00 | 0.00 | 34 | 1000.6 |
| 20260503231512 | 68 | 292 | 3.0 | 8.0 | 0.00 | 0.00 | 0.00 | 33 | 1000.6 |
| 20260503230013 | 68 | 266 | 3.0 | 8.0 | 0.00 | 0.00 | 0.00 | 30 | 1000.7 |
| 20260503224511 | 69 | 288 | 6.0 | 11.0 | 0.00 | 0.00 | 0.00 | 28 | 1000.7 |
| 20260503223004 | 69 | 288 | 4.0 | 11.0 | 0.00 | 0.00 | 0.00 | 32 | 1000.6 |
| 20260503221504 | 70 | 294 | 3.0 | 9.0 | 0.00 | 0.00 | 0.00 | 28 | 1000.7 |
| 20260503220029 | 70 | 282 | 6.0 | 12.0 | 0.00 | 0.00 | 0.00 | 27 | 1000.8 |
| 20260503214510 | 69 | 314 | 3.0 | 10.0 | 0.00 | 0.00 | 0.00 | 28 | 1000.9 |
| 20260503213011 | 68 | 291 | 2.0 | 9.0 | 0.00 | 0.00 | 0.00 | 27 | 1000.8 |
| 20260503211506 | 68 | 291 | 2.0 | 12.0 | 0.00 | 0.00 | 0.00 | 27 | 1000.9 |
| 20260503210006 | 71 | 309 | 2.0 | 10.0 | 0.00 | 0.00 | 0.00 | 24 | 1001.1 |
| 20260503204603 | 71 | 318 | 3.0 | 11.0 | 0.00 | 0.00 | 0.00 | 26 | 1001.4 |
| 20260503203020 | 69 | 255 | 3.0 | 7.0 | 0.00 | 0.00 | 0.00 | 24 | 1001.6 |
| 20260503201510 | 67 | 278 | 5.0 | 11.0 | 0.00 | 0.00 | 0.00 | 27 | 1001.9 |
| 20260503200006 | 69 | 267 | 5.0 | 13.0 | 0.00 | 0.00 | 0.00 | 27 | 1001.9 |
| 20260503194506 | 69 | 288 | 4.0 | 11.0 | 0.00 | 0.00 | 0.00 | 27 | 1002.0 |
| 20260503193112 | 68 | 20 | 1.0 | 9.0 | 0.00 | 0.00 | 0.00 | 26 | 1002.0 |
| 20260503191519 | 70 | 288 | 4.0 | 9.0 | 0.00 | 0.00 | 0.00 | 26 | 1002.1 |
| 20260503190015 | 69 | 336 | 2.0 | 13.0 | 0.00 | 0.00 | 0.00 | 23 | 1002.1 |
| 20260503184511 | 69 | 303 | 3.0 | 9.0 | 0.00 | 0.00 | 0.00 | 32 | 1002.3 |
| 20260503183009 | 69 | 355 | 4.0 | 13.0 | 0.00 | 0.00 | 0.00 | 31 | 1002.4 |
| 20260503181505 | 68 | 324 | 3.0 | 13.0 | 0.00 | 0.00 | 0.00 | 28 | 1002.4 |
| 20260503180015 | 67 | 321 | 5.0 | 13.0 | 0.00 | 0.00 | 0.00 | 34 | 1002.6 |
| 20260503174504 | 68 | 339 | 5.0 | 13.0 | 0.00 | 0.00 | 0.00 | 33 | 1002.6 |
| 20260503173003 | 67 | 310 | 4.0 | 8.0 | 0.00 | 0.00 | 0.00 | 40 | 1002.6 |
| 20260503171513 | 67 | 311 | 4.0 | 9.0 | 0.00 | 0.00 | 0.00 | 40 | 1002.8 |
| 20260503150104 | 64 | 49 | 2.0 | 6.0 | 0.00 | 0.00 | 0.00 | 47 | 1002.8 |
| 20260503100105 | 51 | 261 | 0.0 | 1.0 | 0.00 | 0.00 | 0.00 | 74 | 1002.5 |
| 20260503090108 | 53 | 196 | 1.0 | 5.0 | 0.00 | 0.00 | 0.00 | 69 | 1002.8 |
| 20260503081510 | 54 | 173 | 2.0 | 6.0 | 0.00 | 0.00 | 0.00 | 61 | 1003.4 |
| 20260503071511 | 53 | 126 | 2.0 | 4.0 | 0.00 | 0.00 | 0.00 | 66 | 1004.1 |
| 20260503054512 | 54 | 113 | 0.0 | 2.0 | 0.00 | 0.00 | 0.00 | 63 | 1005.4 |
| 20260503051512 | 56 | 113 | 0.0 | 1.0 | 0.00 | 0.00 | 0.00 | 63 | 1005.6 |
| 20260503050024 | 56 | 113 | 1.0 | 2.0 | 0.00 | 0.00 | 0.00 | 56 | 1005.7 |
| 20260503044506 | 57 | 149 | 0.0 | 3.0 | 0.00 | 0.00 | 0.00 | 56 | 1005.6 |
| 20260503043115 | 58 | 147 | 0.0 | 2.0 | 0.00 | 0.00 | 0.00 | 55 | 1006.1 |
| 20260503041511 | 59 | 173 | 0.0 | 1.0 | 0.00 | 0.00 | 0.00 | 53 | 1006.2 |
| 20260503040009 | 59 | 238 | 0.0 | 6.0 | 0.00 | 0.00 | 0.00 | 54 | 1006.4 |
| 20260503034509 | 59 | 275 | 2.0 | 4.0 | 0.00 | 0.00 | 0.00 | 50 | 1006.6 |
| 20260503033005 | 60 | 263 | 2.0 | 8.0 | 0.00 | 0.00 | 0.00 | 49 | 1006.8 |
| 20260503031505 | 60 | 263 | 1.0 | 2.0 | 0.00 | 0.00 | 0.00 | 53 | 1006.9 |
| 20260503030115 | 60 | 242 | 0.0 | 3.0 | 0.00 | 0.00 | 0.00 | 50 | 1006.8 |
| 20260503024512 | 60 | 276 | 1.0 | 4.0 | 0.00 | 0.00 | 0.00 | 50 | 1006.9 |
| 20260503023008 | 60 | 216 | 1.0 | 4.0 | 0.00 | 0.00 | 0.00 | 56 | 1007.1 |
| 20260503021509 | 60 | 272 | 2.0 | 7.0 | 0.00 | 0.00 | 0.00 | 48 | 1006.9 |
| 20260503020006 | 60 | 279 | 0.0 | 5.0 | 0.00 | 0.00 | 0.00 | 51 | 1007.1 |
| 20260503014504 | 60 | 275 | 2.0 | 7.0 | 0.00 | 0.00 | 0.00 | 47 | 1007.2 |
| 20260503013022 | 60 | 272 | 3.0 | 9.0 | 0.00 | 0.00 | 0.00 | 47 | 1007.2 |
| 20260503011512 | 61 | 290 | 3.0 | 10.0 | 0.00 | 0.00 | 0.00 | 45 | 1007.0 |
| 20260503010011 | 61 | 195 | 0.0 | 4.0 | 0.00 | 0.00 | 0.00 | 45 | 1007.1 |
| 20260503004507 | 61 | 202 | 1.0 | 5.0 | 0.00 | 0.00 | 0.00 | 44 | 1007.2 |
| 20260503003004 | 61 | 199 | 0.0 | 3.0 | 0.00 | 0.00 | 0.00 | 47 | 1007.3 |
| 20260503001605 | 61 | 228 | 1.0 | 5.0 | 0.00 | 0.00 | 0.00 | 46 | 1007.6 |